BREEZE-M R/B, 41582

Orbit data source: Space-Track

BREEZE-M R/B, 41582 is space debris in HEO originally from a launch on Thu, 09 Jun 2016 UTC launched from the Tyuratam Missile And Space Complex (TTMTR). Debris objects in space refer to the collection of defunct objects orbiting the Earth. Examples of debris include non-operational satellites, rocket bodies, and fragments generated from explosions, collisions, or faulty payload assembly.

Loading next visibility...
Identifier
41582, 2016-035B
Orbit
HEO
Country
Flag of CISCIS
Related business
Manufacturer
Khrunichev
Mission
Spacecraft
Bus & Motor
BRIZ, Unknown motor
Mass
~1,600 kg wet, 1,600 kg dry
Launch date (UTC)
2016-06-09 (9 years ago)
Launch vehicle
Unknown
Launch site
Tyuratam Missile And Space Complex (TTMTR)
Object type
Payload
Rocket body
Debris
Shape & HBR
Cyl, 2.0 m
Radar Cross Section
15.135 m², Large (>1 m²)

Expand to show TLE details & history
Last TLE update: 3 days ago

TLE from 3 days ago
0 BREEZE-M R/B
1 41582U 16035B   25306.65520869 -.00000391  00000-0  00000-0 0  9996
2 41582  31.9728 318.5099 7910548 111.5173 342.7930  1.12663817 38688
Epoch: 2025-11-02T15:43Z
TLE epoch observation values (Epoch: 2025-11-02T15:43:30.030Z)
Latitude
-0.00107°
Longitude
40.49264°
Altitude
14,075.15 km
Speed
5.363 km/s
True Right ascension
21h 14m 08s
True Declination
0° 00' 04"
Sunlit
Object was in daylight at epoch
Visualization orbit readout
Latitude
Unknown
Longitude
Unknown
Altitude
Unknown
Speed
Unknown
Apparent Right ascension
Unknown
Apparent Declination
Unknown
Sunlit
N/A
Visualization observer readout
Local Sidereal Time
00:13:49
Azimuth
Unknown
Elevation
Unknown
Doppler factor
Unknown
Orbital elements
Apogee altitude
63,501.903 km
Perigee altitude
1,774.098 km
Semi-major axis
39,016.137 km
Eccentricity
0.79105
Inclination
31.9728°
RAAN
318.5099°
Arg. of periapsis
111.5173°
True anomaly
247.93966°
Mean anomaly
342.793°
Eccentric anomaly
306.23426°
Mean motion
0.28163 °/min
Orbital period
1,278.28 mins
BSTAR
0
Loading maneuver chart data...
Computing Atmospheric mass density...
Loading historical data...
Loading historical data...
Loading historical data...
Loading historical data...
Loading historical data...
Loading historical data...
Loading historical data...
Other satellites on launch #35 in the year 2016 (2016-06-09 UTC)

Documentation

Showing up to 5 results
|